| time (UTC) | temp F | wind direction | speed MPH | gust MPH | rain 1hr in | rain 24hr in | rain mn in | humidity % | barometer mb |
| 20260906193031 | 56 | 128 | 0.0 | 1.0 | 0.00 | 0.00 | 0.00 | 82 | |
| 20260906190142 | 58 | 0.0 | 0.0 | 0.00 | 0.00 | 0.00 | 79 | ||
| 20260906183032 | 59 | 0.0 | 0.0 | 0.00 | 0.00 | 0.00 | 74 | ||
| 20260906173032 | 66 | 0.0 | 0.0 | 0.00 | 0.00 | 0.00 | 63 | ||
| 20260906170106 | 68 | 146 | 0.0 | 1.0 | 0.00 | 0.00 | 0.00 | 60 | |
| 20260906163033 | 69 | 159 | 0.0 | 2.0 | 0.00 | 0.00 | 0.00 | 54 | |
| 20260906160125 | 72 | 141 | 0.0 | 1.0 | 0.00 | 0.00 | 0.00 | 49 | |
| 20260906153034 | 74 | 167 | 1.0 | 3.0 | 0.00 | 0.00 | 0.00 | 43 | |
| 20260906150106 | 74 | 120 | 1.0 | 3.0 | 0.00 | 0.00 | 0.00 | 45 | |
| 20260906143035 | 73 | 128 | 1.0 | 3.0 | 0.00 | 0.00 | 0.00 | 46 | |
| 20260906140107 | 75 | 145 | 0.0 | 3.0 | 0.00 | 0.00 | 0.00 | 41 | |
| 20260906133037 | 74 | 164 | 1.0 | 2.0 | 0.00 | 0.00 | 0.00 | 44 | |
| 20260906130108 | 73 | 148 | 1.0 | 6.0 | 0.00 | 0.00 | 0.00 | 49 | |
| 20260906123037 | 71 | 157 | 1.0 | 3.0 | 0.00 | 0.00 | 0.00 | 51 | |
| 20260906120108 | 71 | 138 | 1.0 | 6.0 | 0.00 | 0.00 | 0.00 | 55 | |
| 20260906113058 | 69 | 169 | 1.0 | 3.0 | 0.00 | 0.00 | 0.00 | 57 | |
| 20260906110109 | 69 | 126 | 1.0 | 3.0 | 0.00 | 0.00 | 0.00 | 58 | |
| 20260906103039 | 69 | 157 | 1.0 | 4.0 | 0.00 | 0.00 | 0.00 | 60 | |
| 20260906100110 | 68 | 205 | 1.0 | 4.0 | 0.00 | 0.00 | 0.00 | 61 | |
| 20260906093040 | 66 | 133 | 0.0 | 3.0 | 0.00 | 0.00 | 0.00 | 62 | |
| 20260906090111 | 66 | 158 | 1.0 | 3.0 | 0.00 | 0.00 | 0.00 | 63 | |
| 20260906083040 | 64 | 137 | 0.0 | 2.0 | 0.00 | 0.00 | 0.00 | 66 | |
| 20260906080112 | 63 | 126 | 1.0 | 2.0 | 0.00 | 0.00 | 0.00 | 71 | |
| 20260906073101 | 59 | 157 | 0.0 | 2.0 | 0.00 | 0.00 | 0.00 | 76 | |
| 20260906070113 | 56 | 146 | 0.0 | 1.0 | 0.00 | 0.00 | 0.00 | 82 | |
| 20260906063042 | 52 | 122 | 0.0 | 2.0 | 0.00 | 0.00 | 0.00 | 89 | |
| 20260906060114 | 49 | 128 | 0.0 | 2.0 | 0.00 | 0.00 | 0.00 | 96 | |
| 20260906053104 | 46 | 140 | 0.0 | 2.0 | 0.00 | 0.00 | 0.00 | 98 | |
| 20260906050135 | 46 | 143 | 0.0 | 2.0 | 0.00 | 0.00 | 0.00 | 98 | |
| 20260906043044 | 46 | 130 | 0.0 | 1.0 | 0.00 | 0.00 | 0.00 | 98 | |
| 20260906040118 | 46 | 0.0 | 1.0 | 0.00 | 0.03 | 0.00 | 98 | ||
| 20260906033046 | 46 | 0.0 | 0.0 | 0.00 | 0.08 | 0.00 | 97 | ||
| 20260906030037 | 47 | 0.0 | 0.0 | 0.00 | 0.18 | 0.00 | 97 | ||
| 20260906023047 | 47 | 0.0 | 0.0 | 0.00 | 0.18 | 0.00 | 96 | ||
| 20260906020018 | 48 | 0.0 | 0.0 | 0.00 | 0.20 | 0.00 | 96 | ||
| 20260906013048 | 49 | 140 | 0.0 | 1.0 | 0.00 | 0.20 | 0.00 | 95 | |
| 20260906010019 | 50 | 132 | 0.0 | 1.0 | 0.00 | 0.20 | 0.00 | 94 | |
| 20260906003049 | 50 | 143 | 0.0 | 2.0 | 0.00 | 0.20 | 0.00 | 94 | |
| 20260906000020 | 50 | 0.0 | 1.0 | 0.00 | 0.20 | 0.00 | 93 | ||
| 20260905233050 | 51 | 0.0 | 1.0 | 0.00 | 0.20 | 0.00 | 92 | ||
| 20260905230021 | 52 | 139 | 0.0 | 1.0 | 0.00 | 0.20 | 0.00 | 91 | |
| 20260905223051 | 53 | 137 | 0.0 | 2.0 | 0.00 | 0.20 | 0.00 | 88 | |
| 20260905220021 | 53 | 125 | 0.0 | 1.0 | 0.00 | 0.20 | 0.00 | 88 | |
| 20260905213051 | 54 | 0.0 | 1.0 | 0.00 | 0.20 | 0.20 | 87 | ||
| 20260905210022 | 55 | 0.0 | 1.0 | 0.00 | 0.20 | 0.20 | 86 | ||
| 20260905203052 | 56 | 154 | 0.0 | 1.0 | 0.00 | 0.20 | 0.20 | 82 | |
| 20260905200024 | 58 | 123 | 0.0 | 1.0 | 0.00 | 0.20 | 0.20 | 79 |